Regional Weather Roundup
Issued by NWS Cleveland, OH

Home | Current Version | Previous Version | Text Only | Print | Product List | Glossary Off
Versions: 1 2 3 4 5 6 7 8 9 10 11 12 13 14 15 16 17 18 19 20 21 22 23 24 25 26 27 28 29 30 31 32 33 34 35 36 37 38 39 40 41 42 43 44 45 46 47 48 49 50

000
ASUS41 KCLE 251210
RWRCLE
OHIO REGIONAL WEATHER ROUNDUP
NATIONAL WEATHER SERVICE WILMINGTON, OH
800 AM EDT THU AUG 25 2016

NOTE: "FAIR" INDICATES FEW OR NO CLOUDS BELOW 12,000 FEET WITH NO
SIGNIFICANT WEATHER AND/OR OBSTRUCTIONS TO VISIBILITY.

OHZ001>008-015>018-024>027-034-035-043-044-251300-
   NORTHWEST OHIO

CITY           SKY/WX    TMP DP  RH WIND       PRES   REMARKS
DEFIANCE       LGT RAIN  71  68  90 SW3       30.04R
FINDLAY        FAIR      73  70  90 SW7       30.04R
TOLEDO EXPRESS FAIR      71  71 100 MISG      30.02R
TOLEDO EXEC    FAIR      72  71  97 SW8       30.03R
LIMA           FAIR      73  73 100 SW7       30.06R
$$

OHZ009>014-019>023-028>033-038-089-251300-
   NORTHEAST OHIO

CITY           SKY/WX    TMP DP  RH WIND       PRES   REMARKS
CLE-HOPKINS    CLOUDY    74  70  87 SW6       30.04S
CLE-LAKEFRONT  PTSUNNY   75  72  90 SW12      30.00S
CUY CO. ARPT   CLOUDY    75  75 100 W12       30.03R FOG
LORAIN-ELYRIA  FAIR      72  70  93 SW8       30.04R
ASHTABULA      CLOUDY    74  74 100 W6        30.02R
AKRON-CANTON   NOT AVBL
WOOSTER        FAIR      72  70  93 SW6       30.07R
MANSFIELD      FAIR      73  71  93 W8        30.07R
YOUNGSTOWN     NOT AVBL
$$

OHZ042-051>053-060>062-070>072-077>081-251300-
  SOUTHWEST OHIO

CITY           SKY/WX    TMP DP  RH WIND       PRES   REMARKS
CINC-COVINGTON NOT AVBL
CINC-LUNKEN    PTSUNNY   76  75  97 S3        30.09R
HAMILTON       FAIR      78  74  87 SW3       30.09R
DAYTON         CLOUDY    76  74  93 SW7       30.10R
WRIGHT-PAT AFB CLOUDY    76  76  99 SW6       30.08S
DAYTON GENERAL PTSUNNY   77  72  84 SW5       30.09R
WILMINGTON     CLOUDY    74  73  97 SW6       30.11R
$$

OHZ036-037-039>041-045>050-054>059-063>069-073>076-082>088-251300-
  CENTRAL AND SOUTHEAST OHIO

CITY           SKY/WX    TMP DP  RH WIND       PRES   REMARKS
COLUMBUS       PTSUNNY   73  72  96 S5        30.07S
OSU AIRPORT    FAIR      74  73  97 SW5       30.08R
BOLTON FIELD   PTSUNNY   73  73 100 SW3       30.09R
RICKENBACK AFB FAIR      72  72 100 S5        30.08R
NEWARK         PTSUNNY   74  72  93 SW5       30.08R
MARION         FAIR      73  71  93 SW5       30.07R FOG
LANCASTER      CLOUDY    74  73  97 CALM      30.09R
ZANESVILLE     PTSUNNY   73  71  93 S6        30.08S
NEW PHILLY     FAIR      76  70  82 SW3       30.07R
$$




USA.gov is the U.S. government's official web portal to all federal, state and local government web resources and services.